Tracking 20712 objects as of 28-May-2020
HD Live streaming from Space Station
objects crossing your sky now

LEMUR 2 NOGUECORREIG

Track LEMUR 2 NOGUECORREIG now!
10-day predictions
LEMUR 2 NOGUECORREIG is classified as:


NORAD ID: 41996
Int'l Code: 2017-008BA
Perigee: 488.6 km
Apogee: 500.9 km
Inclination: 97.4 °
Period: 94.4 minutes
Semi major axis: 6865 km
RCS: Unknown
Launch date: February 15, 2017
Source: United States (US)
Launch site: SRIHARIKOTA (SRI)
aabbcc
Your satellite tracking list
Your tracking list is empty




NASA's NSSDC Master Catalog

Two Line Element Set (TLE):
1 41996U 17008BA  20149.10375970  .00001359  00000-0  55519-4 0  9990
2 41996  97.3634 216.3493 0008993  37.4436 322.7428 15.26059308181666
Source of the keplerian elements: AFSPC